DW6743 Weather Reports


Display with metric or nautical units.
time (UTC)temp
F
wind
direction
speed
MPH
gust
MPH
rain 1hr
in
rain 24hr
in
rain mn
in
humidity
%
barometer
mb
20260504041304 49 249 1.0 3.0 0.00 2.06 0.17 87 1005.3
20260504040804 49 249 1.0 2.0 0.00 2.06 0.17 87 1005.3
20260504040304 49 249 1.0 2.0 0.00 2.06 0.17 87 1005.4
20260504040104 49 0 0.0 2.0 0.00 0.18 0.17 87 1005.3
20260504034804 49 249 2.0 3.0 0.01 2.06 0.17 87 1005.4
20260504034601 49 249 2.0 6.0 0.00 0.18 0.17 87 1005.2
20260504034305 49 249 3.0 6.0 0.01 2.06 0.17 87 1005.2
20260504033804 49 249 4.0 6.0 0.01 2.06 0.17 87 1005.2
20260504033305 49 271 4.0 6.0 0.01 2.06 0.17 87 1005.2
20260504033127 49 22 3.0 4.0 0.00 0.18 0.17 87 1005.1
20260504031804 49 22 0.0 2.0 0.01 2.07 0.17 87 1005.4
20260504031558 49 0 1.0 3.0 0.00 0.18 0.17 86 1005.5
20260504031304 49 22 2.0 3.0 0.01 2.07 0.17 87 1005.5
20260504030804 49 22 2.0 3.0 0.01 2.08 0.17 87 1005.5
20260504030059 49 22 2.0 5.0 0.00 0.18 0.17 86 1005.6
20260504024556 49 27 3.0 10.0 0.00 0.18 0.16 86 1005.8
20260504024304 49 19 6.0 9.0 0.01 2.08 0.17 87 1005.7
20260504023804 49 22 8.0 10.0 0.01 2.08 0.17 87 1005.8
20260504023104 49 24 8.0 12.0 0.00 0.18 0.16 86 1005.9
20260504021804 52 295 6.0 9.0 0.01 1.91 0.17 87 1005.8
20260504021557 52 296 6.0 9.0 0.00 0.18 0.16 86 1005.8
20260504021311 52 285 6.0 8.0 0.01 1.75 0.17 87 1005.8
20260504020804 52 281 4.0 8.0 0.01 1.76 0.17 87 1005.9
20260504020100 52 264 4.0 8.0 0.00 0.18 0.16 86 1005.9
20260504014804 52 266 4.0 7.0 0.01 1.75 0.16 87 1006.0
20260504014557 52 266 4.0 8.0 0.00 0.17 0.15 86 1005.9
20260504014305 52 266 6.0 8.0 0.02 1.75 0.16 87 1006.1
20260504013804 52 277 5.0 7.0 0.02 1.76 0.16 87 1006.1
20260504013109 52 279 3.0 8.0 0.01 0.17 0.15 86 1006.0
20260504011804 52 269 3.0 6.0 0.02 1.28 0.16 87 1006.1
20260504011556 52 269 4.0 8.0 0.02 0.17 0.15 86 1006.1
20260504011304 52 269 5.0 7.0 0.02 1.13 0.16 87 1006.2
20260504010804 52 269 5.0 8.0 0.16 0.97 0.16 87 1006.2
20260504010115 52 270 5.0 8.0 0.03 0.17 0.15 86 1006.1
20260504004624 52 265 4.0 8.0 0.03 0.16 0.14 86 1006.3
20260504004305 52 269 4.0 7.0 0.03 0.80 0.14 86 1006.4
20260504003804 52 263 6.0 8.0 0.04 0.80 0.14 86 1006.4
20260504003304 52 268 3.0 7.0 0.05 0.80 0.14 86 1006.5
20260504003056 52 262 3.0 9.0 0.05 0.15 0.14 86 1006.5
20260504001805 52 252 4.0 7.0 0.07 0.80 0.14 86 1006.5
20260504001606 52 252 5.0 8.0 0.06 0.14 0.13 86 1006.5
20260504001304 52 252 6.0 8.0 0.06 0.80 0.13 86 1006.5
20260504000805 52 254 6.0 9.0 0.13 0.54 0.00 86 1006.6
20260504000304 52 249 7.0 9.0 0.06 0.54 0.13 86 1006.6
20260504000056 52 247 6.0 9.0 0.06 0.14 0.12 86 1006.5
20260503234804 52 249 6.0 9.0 0.06 0.53 0.11 86 1006.8
20260503234557 52 260 6.0 9.0 0.06 0.12 0.11 85 1006.7
20260503233804 52 259 6.0 8.0 0.07 0.53 0.10 86 1006.9
20260503233304 52 271 3.0 6.0 0.06 0.52 0.09 86 1006.9
20260503233058 52 271 3.0 6.0 0.05 0.10 0.08 86 1006.9
20260503231804 52 248 3.0 6.0 0.06 0.43 0.07 86 1007.0
20260503231558 52 247 2.0 6.0 0.05 0.08 0.07 86 1006.9
20260503231304 52 247 3.0 6.0 0.06 0.43 0.07 86 1007.1
20260503230804 52 247 3.0 6.0 0.05 0.43 0.06 86 1007.1
20260503224804 52 246 6.0 8.0 0.03 0.35 0.05 86 1007.5
20260503224556 52 253 6.0 9.0 0.06 0.07 0.04 85 1007.5
20260503224304 52 257 5.0 8.0 0.03 0.35 0.04 86 1007.6
20260503223304 52 256 3.0 8.0 0.02 0.34 0.03 86 1007.6
20260503223059 52 256 5.0 8.0 0.04 0.05 0.03 85 1007.5
20260503221602 52 216 3.0 5.0 0.03 0.03 0.01 85 1007.2
20260503220826 52 216 3.0 3.0 0.01 0.29 0.02 85 1007.1
20260503220304 52 216 3.0 6.0 0.02 0.28 0.00 85 1007.0
20260503220059 52 216 3.0 6.0 0.01 0.02 0.00 85 1007.0
20260503214600 52 194 3.0 7.0 0.00 0.01 0.00 85 1007.0
20260503213804 52 207 5.0 6.0 0.00 0.26 0.01 85 1007.2
20260503213305 52 219 5.0 9.0 0.00 0.26 0.01 85 1007.3
20260503213108 52 225 6.0 9.0 0.00 0.01 0.00 85 1007.3
20260503211804 52 220 6.0 10.0 0.01 0.26 0.01 85 1007.6
20260503211559 52 228 7.0 10.0 0.00 0.01 0.00 84 1007.6
20260503211305 52 222 6.0 10.0 0.00 0.26 0.01 85 1007.7
20260503210804 52 234 7.0 10.0 0.00 0.26 0.01 85 1007.6
20260503210304 52 228 9.0 10.0 0.00 0.26 0.01 85 1007.7
20260503210112 52 229 8.0 11.0 0.00 0.01 0.00 84 1007.7
20260503204804 52 228 6.0 9.0 0.00 0.26 0.01 85 1007.8
20260503204609 52 223 6.0 9.0 0.00 0.01 0.00 84 1007.7
20260503204304 52 227 6.0 9.0 0.00 0.26 0.01 85 1007.8
20260503203804 52 231 5.0 8.0 0.00 0.26 0.01 85 1007.9
20260503203305 53 216 6.0 10.0 0.00 0.26 0.01 85 1007.9
20260503203105 52 225 5.0 10.0 0.00 0.01 0.00 84 1007.9
20260503201604 52 230 9.0 13.0 0.00 0.01 0.00 84 1008.1
20260503201304 53 224 9.0 12.0 0.00 0.25 0.01 84 1008.1
20260503200304 53 231 7.0 12.0 0.00 0.24 0.01 84 1008.3
20260503200101 52 223 8.0 12.0 0.00 0.01 0.00 84 1008.4
20260503194804 53 238 9.0 12.0 0.00 0.24 0.01 84 1008.5
20260503194600 52 245 8.0 12.0 0.00 0.01 0.00 83 1008.3
20260503194304 53 241 10.0 12.0 0.00 0.23 0.01 84 1008.5
20260503193804 53 241 7.0 12.0 0.01 0.22 0.01 84 1008.5
20260503193305 53 230 7.0 14.0 0.00 0.22 0.01 84 1008.5
20260503193101 52 245 9.0 14.0 0.00 0.01 0.00 83 1008.5
20260503191804 53 236 10.0 13.0 0.00 0.21 0.01 83 1008.6
20260503191622 53 231 6.0 10.0 0.00 0.01 0.00 82 1008.6
20260503191304 53 239 6.0 9.0 0.01 0.21 0.01 83 1008.6
20260503190804 53 228 5.0 10.0 0.00 0.21 0.01 83 1008.4
20260503190304 54 223 7.0 10.0 0.00 0.21 0.01 83 1008.3
20260503190059 53 221 6.0 10.0 0.00 0.01 0.00 82 1008.3
20260503184601 53 224 6.0 9.0 0.00 0.01 0.00 81 1008.3
20260503183804 54 220 3.0 5.0 0.02 0.19 0.00 82 1008.4
20260503183115 54 227 4.0 6.0 0.00 0.01 0.00 81 1008.2
20260503181804 54 228 4.0 6.0 0.00 0.19 0.01 81 1008.3
20260503181602 54 198 4.0 6.0 0.00 0.01 0.00 81 1008.1
20260503180804 54 224 4.0 8.0 0.00 0.18 0.01 81 1008.3
20260503180304 55 222 5.0 8.0 0.00 0.18 0.01 81 1008.4
20260503180056 54 231 3.0 7.0 0.00 0.01 0.00 81 1008.4
20260503174804 55 243 7.0 8.0 0.00 0.17 0.00 81 1008.5
20260503174558 54 238 4.0 9.0 0.00 0.01 0.00 80 1008.5
20260503174304 55 238 4.0 8.0 0.00 0.17 0.01 81 1008.5
20260503173804 55 238 6.0 9.0 0.00 0.17 0.01 81 1008.5
20260503173304 55 237 6.0 9.0 0.00 0.17 0.01 80 1008.5
20260503173117 54 224 5.0 8.0 0.00 0.01 0.00 80 1008.6
20260503171804 55 247 6.0 9.0 0.00 0.17 0.01 80 1008.6
20260503171559 54 274 7.0 10.0 0.00 0.01 0.00 79 1008.6
20260503171304 55 248 9.0 10.0 0.00 0.17 0.01 80 1008.6
20260503170304 55 259 7.0 10.0 0.00 0.17 0.01 79 1008.7
20260503150804 55 244 7.0 10.0 0.00 0.17 0.01 78 1009.3
20260503140304 55 260 10.0 13.0 0.00 0.16 0.01 76 1009.8
20260503131305 55 290 9.0 12.0 0.00 0.15 0.01 80 1010.1
20260503130804 55 304 8.0 12.0 0.00 0.15 0.01 79 1010.2
20260503120116 52 318 6.0 8.0 0.00 0.01 0.00 81 1010.5
20260503110804 52 284 6.0 8.0 0.00 0.14 0.01 84 1010.8
20260503110304 52 329 5.0 9.0 0.00 0.14 0.01 84 1010.8
20260503100107 50 288 5.0 11.0 0.00 0.01 0.00 85 1010.7
20260503090304 50 328 9.0 12.0 0.00 0.11 0.01 86 1010.5
20260503081557 50 331 7.0 13.0 0.00 0.01 0.00 86 1010.4
20260503081304 51 337 9.0 10.0 0.00 0.10 0.01 86 1010.5
20260503080804 51 331 11.0 13.0 0.00 0.09 0.01 86 1010.5
20260503071804 51 353 6.0 12.0 0.00 0.09 0.01 86 1009.9
20260503071611 51 345 8.0 12.0 0.00 0.01 0.00 86 1009.9
20260503070804 51 344 7.0 10.0 0.00 0.09 0.01 86 1009.9
20260503070304 51 338 8.0 12.0 0.00 0.09 0.01 86 1009.9
20260503070109 51 331 8.0 11.0 0.00 0.01 0.00 85 1009.9
20260503060306 52 317 6.0 10.0 0.00 0.09 0.01 86 1009.7
20260503054804 52 290 6.0 8.0 0.00 0.09 0.01 85 1009.4
20260503054608 52 305 4.0 9.0 0.00 0.01 0.00 85 1009.3
20260503054304 52 311 5.0 8.0 0.00 0.09 0.01 85 1009.4
20260503053804 52 307 6.0 8.0 0.00 0.09 0.01 85 1009.4
20260503053305 52 326 5.0 8.0 0.00 0.09 0.01 85 1009.3
20260503053058 51 329 4.0 8.0 0.00 0.01 0.00 85 1009.3
20260503051804 52 345 7.0 9.0 0.00 0.09 0.01 85 1009.2
20260503051606 51 340 6.0 10.0 0.00 0.01 0.00 85 1009.0
20260503051304 52 345 6.0 9.0 0.00 0.09 0.01 85 1009.1
20260503050804 52 334 7.0 10.0 0.00 0.09 0.01 86 1009.2
20260503050304 52 328 7.0 12.0 0.00 0.09 0.01 86 1009.1
20260503050100 51 328 6.0 12.0 0.00 0.01 0.00 85 1009.0
20260503044804 52 324 7.0 10.0 0.00 0.09 0.01 86 1009.1
20260503044603 51 327 6.0 10.0 0.00 0.01 0.00 85 1009.1
20260503043305 52 333 6.0 10.0 0.00 0.09 0.01 85 1009.0
20260503043057 52 350 6.0 10.0 0.00 0.01 0.00 85 1009.0
20260503041804 52 321 6.0 9.0 0.00 0.09 0.01 86 1009.1
20260503041607 52 333 6.0 9.0 0.00 0.01 0.00 85 1009.1